USA 153

Last updated on Fri Jul 11 2025 00:02:42 GMT+0000 (Coordinated Universal Time)

1 26575U 00065A 25191.48632396 -.00000319 00000+0 00000+0 0 9997 2 26575 11.0307 38.1453 0001497 44.5585 155.4299 1.00274028 29500
UTC large
Height (km)
Speed (km/s)
/
Latitude / Longitude
Inclination (degrees)
Orbital Period (minutes)
Azimuth
Elevation
Range (km)
Doppler Factor

Next 0 passes for location: London (51.5072 / 0.1276)

Sorry there are no passes over London.